2022/12/23 00:00:00,10.5,-5.7
2022/12/23 00:10:00,10.6,-6.0
2022/12/23 00:20:00,10.5,-6.0
2022/12/23 00:30:00,10.6,-6.3
2022/12/23 00:40:00,10.8,-6.2
2022/12/23 00:50:00,11.1,-6.3
2022/12/23 01:00:00,11.7,-6.6
2022/12/23 01:10:00,12.1,-6.7
2022/12/23 01:20:00,12.1,-7.0
2022/12/23 01:30:00,12.3,-7.3
2022/12/23 01:40:00,12.6,-6.9
2022/12/23 01:50:00,13.1,-7.1
2022/12/23 02:00:00,13.9,-7.1
2022/12/23 02:10:00,14.9,-7.4
2022/12/23 02:20:00,16.0,-7.1
2022/12/23 02:30:00,16.9,-7.4
2022/12/23 02:40:00,17.8,-7.4
2022/12/23 02:50:00,19.3,-7.1
2022/12/23 03:00:00,19.4,-7.0
2022/12/23 03:10:00,19.5,-6.9
2022/12/23 03:20:00,19.6,-7.1
2022/12/23 03:30:00,19.8,-6.7
2022/12/23 03:40:00,19.9,-6.8
2022/12/23 03:50:00,20.2,-6.7
2022/12/23 04:00:00,20.8,-7.0
2022/12/23 04:10:00,21.2,-6.7
2022/12/23 04:20:00,21.5,-6.9
2022/12/23 04:30:00,21.9,-6.8
2022/12/23 04:40:00,22.5,-7.0
2022/12/23 04:50:00,22.5,-7.1
2022/12/23 05:00:00,22.5,-7.1
2022/12/23 05:10:00,22.7,-7.1
2022/12/23 05:20:00,23.2,-6.9
2022/12/23 05:30:00,23.4,-7.1
2022/12/23 05:40:00,23.5,-7.3
2022/12/23 05:50:00,23.7,-7.5
2022/12/23 06:00:00,23.6,-7.2
2022/12/23 06:10:00,23.5,-7.3
2022/12/23 06:20:00,23.6,-7.8
2022/12/23 06:30:00,23.7,-7.0
2022/12/23 06:40:00,23.8,-7.2
2022/12/23 06:50:00,23.8,-7.3
2022/12/23 07:00:00,23.9,-7.4
2022/12/23 07:10:00,24.3,-7.1
2022/12/23 07:20:00,24.7,-7.1
2022/12/23 07:30:00,24.5,-7.3
2022/12/23 07:40:00,24.4,-6.8
2022/12/23 07:50:00,24.6,-7.1
2022/12/23 08:00:00,24.7,-7.2
2022/12/23 08:10:00,24.5,-7.3
2022/12/23 08:20:00,24.3,-6.7
2022/12/23 08:30:00,24.5,-6.7
2022/12/23 08:40:00,24.7,-6.0
2022/12/23 08:50:00,24.7,-5.9
2022/12/23 09:00:00,24.7,-5.2
2022/12/23 09:10:00,24.7,-5.2
2022/12/23 09:20:00,24.8,-4.9
2022/12/23 09:30:00,24.8,-4.7
2022/12/23 09:40:00,24.7,-4.7
2022/12/23 09:50:00,24.6,-4.3
2022/12/23 10:00:00,24.3,-3.9
2022/12/23 10:10:00,24.2,-3.6
2022/12/23 10:20:00,24.2,-3.7
2022/12/23 10:30:00,24.1,-2.6
2022/12/23 10:40:00,23.9,-3.3
2022/12/23 10:50:00,23.7,-3.7
2022/12/23 11:00:00,23.7,-2.8
2022/12/23 11:10:00,23.7,-3.3
2022/12/23 11:20:00,23.5,-3.5
2022/12/23 11:30:00,23.4,-3.5
2022/12/23 11:40:00,23.3,-3.7
2022/12/23 11:50:00,22.9,-3.4
2022/12/23 12:00:00,23.0,-3.0
2022/12/23 12:10:00,22.9,-2.7
2022/12/23 12:20:00,22.7,-3.5
2022/12/23 12:30:00,22.8,-3.5
2022/12/23 12:40:00,22.7,-3.5
2022/12/23 12:50:00,22.7,-3.5
2022/12/23 13:00:00,22.7,-3.8
2022/12/23 13:10:00,22.7,-4.4
2022/12/23 13:20:00,22.9,-4.9
2022/12/23 13:30:00,23.0,-4.8
2022/12/23 13:40:00,23.7,-4.6
2022/12/23 13:50:00,23.7,-4.8
2022/12/23 14:00:00,24.0,-5.1
2022/12/23 14:10:00,24.7,-5.1
2022/12/23 14:20:00,25.2,-5.0
2022/12/23 14:30:00,24.9,-4.9
2022/12/23 14:40:00,25.3,-5.0
2022/12/23 14:50:00,25.3,-5.4
2022/12/23 15:00:00,25.6,-5.4
2022/12/23 15:10:00,26.1,-5.5
2022/12/23 15:20:00,26.1,-5.6
2022/12/23 15:30:00,26.1,-5.7
2022/12/23 15:40:00,26.3,-5.7
2022/12/23 15:50:00,26.7,-5.6
2022/12/23 16:00:00,26.9,-6.3
2022/12/23 16:10:00,27.0,-6.3
2022/12/23 16:20:00,27.2,-6.0
2022/12/23 16:30:00,27.3,-6.1
2022/12/23 16:40:00,27.2,-6.3
2022/12/23 16:50:00,27.3,-6.2
2022/12/23 17:00:00,27.5,-6.3
2022/12/23 17:10:00,27.4,-6.3
2022/12/23 17:20:00,27.6,-6.6
2022/12/23 17:30:00,27.6,-6.4
2022/12/23 17:40:00,27.6,-6.4
2022/12/23 17:50:00,27.8,-6.7
2022/12/23 18:00:00,27.6,-6.5
2022/12/23 18:10:00,27.7,-6.4
2022/12/23 18:20:00,28.0,-6.4
2022/12/23 18:30:00,28.0,-6.4
2022/12/23 18:40:00,28.3,-6.5
2022/12/23 18:50:00,28.5,-6.7
2022/12/23 19:00:00,28.7,-6.4
2022/12/23 19:10:00,28.8,-6.5
2022/12/23 19:20:00,28.9,-6.3
2022/12/23 19:30:00,28.9,-6.7
2022/12/23 19:40:00,29.0,-6.3
2022/12/23 19:50:00,29.0,-6.3
2022/12/23 20:00:00,28.9,-6.1
2022/12/23 20:10:00,29.1,-6.1
2022/12/23 20:20:00,29.6,-6.5
2022/12/23 20:30:00,30.1,-6.0
2022/12/23 20:40:00,30.3,-6.3
2022/12/23 20:50:00,30.1,-6.1
2022/12/23 21:00:00,30.1,-6.1
2022/12/23 21:10:00,30.2,-5.8
2022/12/23 21:20:00,30.4,-6.1
2022/12/23 21:30:00,30.5,-6.2
2022/12/23 21:40:00,30.5,-5.7
2022/12/23 21:50:00,30.5,-6.0
2022/12/23 22:00:00,30.5,-6.0
2022/12/23 22:10:00,30.5,-6.1
2022/12/23 22:20:00,30.3,-7.0
2022/12/23 22:30:00,30.1,-6.8
2022/12/23 22:40:00,30.1,-6.7
2022/12/23 22:50:00,30.0,-6.4
2022/12/23 23:00:00,29.9,-6.4
2022/12/23 23:10:00,29.7,-6.4
2022/12/23 23:20:00,29.4,-6.2
2022/12/23 23:30:00,29.1,-6.2
2022/12/23 23:40:00,28.9,-6.2
2022/12/23 23:50:00,29.1,-6.2
